Location: Astronomy Club of Akron Observatory
(40.9700°N, 81.5606°W)
Time: 23:44:47
(UTC-04:00)

ATLAS 2AS CENTAUR R/B - Visible Passes

Search period start: 31 July 2014 00:00
Search period end: 10 August 2014 00:00
Orbit: 918 x 1294 km, 63.7° (Epoch: 29 July)

Date Brightness Start Highest point End Pass type
(mag) Time Alt. Az. Time Alt. Az. Time Alt. Az.
31 Jul 5.7 00:21:27 10° NNW 00:25:07 14° N 00:28:50 10° NE visible
31 Jul 4.9 02:12:39 10° NNW 02:19:18 27° NE 02:25:54 10° E visible
31 Jul 3.1 04:03:18 10° NW 04:11:27 87° ENE 04:19:19 10° SSE visible
31 Jul 5.5 21:39:16 10° WNW 21:44:48 22° NNW 21:50:37 10° NNE visible
31 Jul 5.7 23:35:54 10° NNW 23:39:17 13° N 23:42:43 10° NNE visible
01 Aug 5.2 01:28:01 10° NNW 01:33:51 21° NNE 01:39:40 10° ENE visible
01 Aug 3.5 03:18:35 10° NNW 03:26:36 62° NE 03:34:24 10° SE visible
01 Aug 3.6 05:10:17 10° NW 05:17:13 33° WSW 05:23:56 10° S visible
01 Aug 5.6 22:49:48 10° NW 22:53:27 14° N 22:57:11 10° NNE visible
02 Aug 5.4 00:43:19 10° NNW 00:48:14 17° NNE 00:53:11 10° ENE visible
02 Aug 4.1 02:33:55 10° NNW 02:41:35 44° NE 02:49:05 10° ESE visible
02 Aug 3.2 04:25:04 10° NW 04:32:47 51° WSW 04:40:14 10° S visible
02 Aug 5.5 22:03:23 10° NW 22:07:41 16° NNW 22:12:08 10° NNE visible
02 Aug 5.5 23:58:26 10° NNW 00:02:31 14° NNE 00:06:37 10° NE visible
03 Aug 4.5 01:49:19 10° NNW 01:56:24 32° NE 02:03:23 10° E visible
03 Aug 2.9 03:40:06 10° NW 03:48:12 76° WSW 03:55:59 10° SSE visible
03 Aug 4.4 05:33:50 10° WNW 05:37:55 15° WSW 05:41:56 10° SW visible
03 Aug 5.4 21:16:57 10° WNW 21:22:02 19° NNW 21:27:20 10° NNE visible
03 Aug 5.5 23:13:12 10° NNW 23:16:42 13° N 23:20:14 10° NNE visible
04 Aug 4.9 01:04:42 10° NNW 01:11:02 25° NNE 01:17:21 10° E visible
04 Aug 3.1 02:55:19 10° NNW 03:03:26 76° NE 03:09:37 18° SE visible
04 Aug 3.9 04:47:32 10° WNW 04:53:43 25° WSW 04:56:50 20° SW visible
04 Aug 5.5 22:27:26 10° NNW 22:30:51 13° N 22:34:20 10° NNE visible
05 Aug 5.2 00:20:03 10° NNW 00:25:31 19° NNE 00:31:00 10° ENE visible
05 Aug 3.6 02:10:37 10° NNW 02:18:31 54° NE 02:23:55 21° ESE visible
05 Aug 3.4 04:02:04 10° NW 04:09:22 39° WSW 04:11:12 35° SW visible
05 Aug 5.5 21:41:09 10° NW 21:45:02 14° NNW 21:49:01 10° NNE visible
05 Aug 5.3 23:35:18 10° NNW 23:39:52 16° NNE 23:44:27 10° NE visible
06 Aug 4.2 01:25:59 10° NNW 01:33:26 39° NE 01:38:54 18° ESE visible
06 Aug 3.0 03:16:58 10° NW 03:24:52 60° WSW 03:26:13 53° SSW visible
06 Aug 5.4 22:50:18 10° NNW 22:54:06 14° N 22:57:55 10° NE visible
07 Aug 4.6 00:41:22 10° NNW 00:48:11 29° NE 00:54:16 12° E visible
07 Aug 2.9 02:32:05 10° NW 02:40:13 87° WSW 02:41:37 65° SSE visible
07 Aug 4.4 04:25:03 10° WNW 04:28:58 18° W 04:28:58 18° W visible
07 Aug 5.4 22:04:52 10° NNW 22:08:16 13° N 22:11:42 10° NNE visible
07 Aug 4.9 23:56:45 10° NNW 00:02:45 22° NNE 00:08:44 10° ENE visible
08 Aug 3.2 01:47:19 10° NNW 01:55:24 66° NE 01:57:15 53° ESE visible
08 Aug 4.0 03:39:11 10° NW 03:44:37 29° W 03:44:37 29° W visible
08 Aug 5.4 21:18:51 10° NW 21:22:25 13° N 21:26:03 10° NNE visible
08 Aug 5.2 23:12:04 10° NNW 23:17:11 18° NNE 23:22:18 10° ENE visible
09 Aug 3.8 01:02:39 10° NNW 01:10:24 47° NE 01:13:03 36° E visible
09 Aug 3.5 02:53:53 10° NW 03:00:26 44° W 03:00:26 44° W visible
09 Aug 5.2 22:27:14 10° NNW 22:31:28 15° NNE 22:35:44 10° NE visible
